Flag for U.S.A. Weather past 2 weeks in Jefferson City, Missouri, U.S.A.

35 °F


Feels Like: 29 °F
Forecast: 32 / 49 °F
Wind: 7 mph from Southwest

Location: Jefferson City Memorial Airport

Current Time: Dec 1, 2015 at 4:06:48 AM

Latest Report: Dec 1, 2015 at 2:53 AM

Visibility: 10 mi

Pressure: 29.96 "Hg

Humidity: 85%

Dew point: 31 °F

Location of Jefferson CityLocation

Historic Weather in Jefferson City — Graph


Jefferson City temperature yesterday

Maximum temperature yesterday: 47 °F (at 7:53 PM)
Minimum temperature yesterday: 38 °F (at 12:53 AM)
Average temperature yesterday: 42 °F

Past Weeks' High & Low Weather Summary

High71 °F (Nov 26, 1:53 PM)97% (Nov 17, 1:53 AM)30.36 "Hg (Nov 17, 1:53 AM)
Low23 °F (Nov 22, 12:53 AM)22% (Nov 24, 3:53 PM)29.40 "Hg (Nov 17, 7:53 PM)
Average46 °F74%30.06 "Hg
* Reported Nov 16 2:53 AM — Dec 1 2:53 AM, Jefferson City, Weather by CustomWeather, © 2015

Note: Actual official high and low records may vary slightly from our data, if they occured in-between our weather recording intervals... More about our weather records


Jefferson City weather history for previous 24 hours

Time TempWeatherWind HumidityBarometerVisibility
2:53 AM
Tue, Dec 1
35 °FClear.7 mph85%29.96 "Hg10 mi
1:53 AM36 °FClear.8 mph82%29.96 "Hg10 mi
12:53 AM38 °FClear.12 mph76%29.95 "Hg10 mi
11:53 PM
Mon, Nov 30
40 °FOvercast.20 mph80%29.95 "Hg10 mi
10:53 PM43 °FOvercast.16 mph76%29.92 "Hg10 mi
9:53 PM44 °FOvercast.14 mph82%29.91 "Hg10 mi
8:53 PM46 °FMostly cloudy.12 mph86%29.90 "Hg10 mi
7:53 PM47 °FLight rain. Fog.18 mph86%29.90 "Hg6 mi
6:53 PM46 °FMostly cloudy.No wind96%29.88 "Hg7 mi
5:53 PM46 °FMostly cloudy.3 mph96%29.88 "Hg8 mi
4:53 PM46 °FMostly cloudy.3 mph96%29.87 "Hg9 mi
3:53 PM46 °FLow clouds.6 mph96%29.87 "Hg8 mi
3:00 PM46 °FFog.5 mph93%29.90 "Hg3 mi
1:53 PM45 °FFog.6 mph93%29.89 "Hg2 mi
1:04 PM43 °FLight rain. Fog.3 mph97%29.94 "Hg2 mi
12:53 PM43 °FLight rain. Fog.3 mph97%29.92 "Hg1 mi
12:00 PM43 °FLight rain. Fog.9 mph93%29.96 "Hg2 mi
10:53 AM42 °FLight rain. Fog.9 mph92%29.99 "Hg6 mi
9:53 AM41 °FLow clouds.12 mph93%30.01 "Hg8 mi
8:53 AM40 °FLow clouds.7 mph93%30.01 "Hg8 mi
7:53 AM39 °FFog.7 mph93%30.02 "Hg4 mi
6:53 AM39 °FFog.6 mph93%30.03 "Hg6 mi
5:53 AM39 °FLight rain. Fog.5 mph93%30.04 "Hg6 mi
4:53 AM39 °FLow clouds.3 mph93%30.04 "Hg8 mi
Weather by CustomWeather, © 2015

See weather overviewHow to use our weather pages